Weather History for Livingston, MT

Change the Weather History Date:

Tuesday, May 8, 2012

  Actual Average Record
Temperature  
Mean Temperature 11 °C 9 °C  
Max Temperature 24 °C 17 °C 29 °C (1987)
Min Temperature -1 °C 1 °C -10 °C (2002)
Degree Days  
Heating Degree Days 12    
Cooling Degree Days 0 0  
Month to date cooling degree days 0  
Year to date cooling degree days 0  
Growing Degree Days 2 (Base 50)    
Moisture  
Dew Point -3 °C    
Average Humidity 43    
Maximum Humidity 79    
Minimum Humidity 16    
Precipitation  
Precipitation 0.00 mm 2.03 mm 2.08 mm (1952)
Month to date precipitation 0.59  
Year to date precipitation 4.19  
Sea Level Pressure  
Sea Level Pressure 1018 hPa    
Wind  
Wind Speed 10 km/h (WSW)    
Max Wind Speed 24 km/h    
Max Gust Speed 35 km/h    
Visibility 16 kilometers    
Events      
T = Trace of Precipitation, MM = Missing Value Source: NWS Daily Summary

Daily Weather History Graph

Daily Weather History Graph

Search for Another Location

Airport:

Trip Planner

Search our weather history database for the weather conditions in past years. The results will help you decide how hot, cold, wet, or windy it might be!

Date:

Astronomy

May. 08, 2012 Rise Set
Actual Time 5:58 AM MDT 8:38 PM MDT
Civil Twilight 5:24 AM MDT 9:12 PM MDT
Nautical Twilight 4:42 AM MDT 9:55 PM MDT
Astronomical Twilight 3:52 AM MDT 10:45 PM MDT
Moon 11:55 PM MDT (5/8) 8:05 AM MDT (5/8)
Length of Visible Light 15h 47m
Length of Day
14h 40m
Waning Gibbous, 90% of the Moon is Illuminated
May 8
Waning Gibbous
May 12
Last Quarter
May 20
New
May 28
First Quarter
Jun 4
Full

Hourly Weather History & Observations

Time (MDT) Temp. Windchill Dew Point Humidity Pressure Visibility Wind Dir Wind Speed Gust Speed Precip Events Conditions
12:53 AM 3.9 °C 2.6 °C -3.9 °C 57% 1023.3 hPa 16.1 km WSW 5.6 km/h / 1.5 m/s - N/A   Clear
1:53 AM 2.2 °C -0.9 °C -3.3 °C 67% 1023.3 hPa 16.1 km South 11.1 km/h / 3.1 m/s - N/A   Clear
2:53 AM 0.0 °C -1.8 °C -3.9 °C 75% 1023.5 hPa 16.1 km SW 5.6 km/h / 1.5 m/s - N/A   Clear
3:53 AM -0.6 °C - -4.4 °C 76% 1023.1 hPa 16.1 km Calm Calm - N/A   Clear
4:53 AM -1.1 °C -5.3 °C -4.4 °C 79% 1023.2 hPa 16.1 km NW 13.0 km/h / 3.6 m/s - N/A   Clear
5:53 AM -1.1 °C - -4.4 °C 79% 1023.1 hPa 16.1 km Calm Calm - N/A   Clear
6:53 AM -0.6 °C - -3.9 °C 79% 1023.0 hPa 16.1 km Calm Calm - N/A   Clear
7:53 AM 4.4 °C 2.1 °C -2.2 °C 63% 1022.2 hPa 16.1 km NW 9.3 km/h / 2.6 m/s - N/A   Clear
8:53 AM 9.4 °C - -1.1 °C 48% 1022.0 hPa 16.1 km Calm Calm - N/A   Clear
9:53 AM 15.6 °C - -4.4 °C 25% 1019.9 hPa 16.1 km West 22.2 km/h / 6.2 m/s - N/A   Clear
10:53 AM 16.1 °C - -4.4 °C 24% 1019.3 hPa 16.1 km West 16.7 km/h / 4.6 m/s - N/A   Clear
11:53 AM 19.4 °C - -3.9 °C 21% 1017.8 hPa 16.1 km WSW 18.5 km/h / 5.1 m/s - N/A   Clear
12:53 PM 21.1 °C - -3.3 °C 19% 1017.0 hPa 16.1 km SW 18.5 km/h / 5.1 m/s 35.2 km/h / 9.8 m/s N/A   Clear
1:53 PM 21.1 °C - -3.3 °C 19% 1016.4 hPa 16.1 km SSW 13.0 km/h / 3.6 m/s 27.8 km/h / 7.7 m/s N/A   Clear
2:53 PM 23.3 °C - -2.2 °C 18% 1015.7 hPa 16.1 km SSW 18.5 km/h / 5.1 m/s 25.9 km/h / 7.2 m/s N/A   Clear
3:53 PM 23.3 °C - -4.4 °C 16% 1014.8 hPa 16.1 km SW 18.5 km/h / 5.1 m/s - N/A   Clear
4:53 PM 23.9 °C - -2.2 °C 18% 1014.2 hPa 16.1 km Variable 9.3 km/h / 2.6 m/s - N/A   Clear
5:53 PM 23.9 °C - -2.8 °C 17% 1013.9 hPa 16.1 km SW 13.0 km/h / 3.6 m/s - N/A   Clear
6:53 PM 23.3 °C - -2.8 °C 18% 1013.4 hPa 16.1 km SW 7.4 km/h / 2.1 m/s - N/A   Clear
7:53 PM 20.6 °C - -2.2 °C 22% 1012.7 hPa 16.1 km West 9.3 km/h / 2.6 m/s - N/A   Clear
8:53 PM 13.3 °C - 1.1 °C 44% 1013.3 hPa 16.1 km South 13.0 km/h / 3.6 m/s - N/A   Clear
9:53 PM 10.0 °C - 0.6 °C 52% 1013.2 hPa 16.1 km SW 9.3 km/h / 2.6 m/s - N/A   Clear
10:53 PM 10.0 °C - 0.0 °C 50% 1013.0 hPa 16.1 km WNW 7.4 km/h / 2.1 m/s - N/A   Clear
11:53 PM 9.4 °C - -0.6 °C 50% 1012.6 hPa 16.1 km NW 24.1 km/h / 6.7 m/s - N/A   Clear